User: anonymous   Login
Location: Narrabri
(30.3170°S, 149.7830°E)
Time: 06:17:26
(UTC+11:00)
Language:

VELOX 1 - Orbit

View from above orbital plane
View from above orbital plane
View from above satellite
View from above satellite

Ground track
Ground track

The orbit data is extracted from the following two-line orbital elements,

1 40057U 14034E   18350.48430626  .00000286  00000-0  47629-4 0  9996
2 40057  98.2184 104.8599 0012272 103.3751 256.8826 14.77549757240560
Epoch (UTC): 16 December 2018 11:37:24
Eccentricity: 0.0012272
inclination: 98.2184°
perigee height: 628 km
apogee height: 645 km
right ascension of ascending node: 104.8599°
argument of perigee: 103.3751°
revolutions per day: 14.77549757
mean anomaly at epoch: 256.8826°
orbit number at epoch: 24056

The dashed part of the orbit path shows where the satellite is in the earth's shadow,  

DLR